Location: Newark
(47.4906°N, 19.0585°E)
Time: 13:41:31
(UTC+00:00)

ISS - Visible Passes

Search period start: 06 December 2019 00:00
Search period end: 16 December 2019 00:00
Orbit: 411 x 421 km, 51.6° (Epoch: 06 December)

Date Brightness Start Highest point End Pass type
(mag) Time Alt. Az. Time Alt. Az. Time Alt. Az.
06 Dec -3.4 15:51:21 10° WNW 15:54:37 49° NNE 15:57:17 14° E visible
06 Dec -1.9 17:28:08 10° WNW 17:30:12 31° W 17:30:12 31° W visible
07 Dec -3.6 16:39:36 10° WNW 16:42:57 72° SSW 16:44:02 39° SE visible
08 Dec -3.8 15:51:04 10° WNW 15:54:27 80° NNE 15:57:49 10° ESE visible
08 Dec -1.4 17:28:16 10° W 17:30:54 21° SW 17:30:59 21° SW visible
09 Dec -2.1 16:39:28 10° WNW 16:42:31 32° SW 16:45:16 12° SSE visible
10 Dec -2.8 15:50:49 10° WNW 15:54:05 50° SSW 15:57:21 10° SE visible
11 Dec -0.7 16:39:56 10° W 16:41:52 15° SW 16:43:47 10° S visible
12 Dec -1.1 15:50:49 10° W 15:53:31 22° SW 15:56:12 10° SSE visible
